星链-34008 (STARLINK-34008)

导读

STARLINK-34008是美国于2025年5月16日发射的星链卫星,隶属于SpaceX公司的星链项目。星链项目旨在构建全球卫星互联网星座,为全球偏远地区、海洋等网络覆盖薄弱区域提供高速宽带服务。该卫星的成功发射进一步扩充了星链星座的在轨卫星数量,推进了全球卫星互联网组网进程。

基本信息
目录编号:
64037
目录名称:
STARLINK-34008
国际标识:
2025-102R
轨道中心:
EARTH
卫星名称:
星链-34008
卫星全名:
星链-34008 (STARLINK-34008)
卫星状态:
在轨 (已飞行476 天)
发射日期:
2025-05-16 UTC
国别 :
美国 (US)
星等 :
--
轨道信息
数据来源 国际轨道数据
星历时间: 2026-09-02T22:00:02+0800
1天前
查看轨道信息
半长轴: 6901.839km
偏心率: 0.0003762
轨道倾角: 70.002°
近地点辐角 258.308°
升交点赤经 28.366°
平近点角 10.275°
近地点: 521.105km
远地点: 526.299km
周期: 95.106分钟
每日圈数: 15.141036
详细信息
固有亮度:
5
最大亮度:
2.5
卫星平台:
Starlink V1.0
覆盖范围:
全球
运营商:
太空探索技术公司
运营商所在国:
美国
制造商(研发单位):
太空探索技术公司
制造商所在国:
美国
使用方式:
暂无
卫星简介
Starlink 计划是 SpaceX 推出的全球卫星互联网项目,通过发射低轨道卫星,为全球尤其是偏远地区提供高速、低延迟的互联网服务。自 2019 年起,Starlink 已部署数千颗卫星,旨在缩小全球数字鸿沟,推动互联网普及。该项目还为军事、航空等行业提供通信支持,带来广泛经济效益。
2D轨道图
3D轨道图
轨道高度分析图
轨道倾角分析图
轨道综合分析图
查看轨道综合分析图
交会数据列表
事件ID 空间交会对象 最接近时刻(TCA) 交会距离 交会风险概率(CRP) 交会风险指数(CRI) 操作
CDM_260901-011903-876206-403721
CXBN (38762)
2026-09-01T
01:19:52+0000
0.345 km
远距离
3.55598E-4 高风险 0.86
CDM_260903-083306-403706-842421
2026-09-03T
08:33:08+0000
1.048 km
极远距离
2.349329E-5 中风险 0.62
CDM_260904-121406-274806-403721
2026-09-04T
12:14:40+0000
2.152 km
极远距离
2.150193E-6 低风险 0.42
CDM_260830-151301-479506-403722
JD 3 (14795)
2026-08-30T
15:13:12+0000
2.361 km
极远距离
1.42486E-6 低风险 0.38
CDM_260905-035905-343106-403721
2026-09-05T
03:59:21+0000
2.690 km
极远距离
6.318368E-7 极低风险 0.31